Regional Weather Roundup
Issued by NWS Jackson, KY

Home | Current Version | Previous Version | Text Only | Print | Product List | Glossary On
Versions: 1 2 3 4 5 6 7 8 9 10 11 12 13 14 15 16 17 18 19 20 21 22 23 24 25 26 27
000
ASUS43 KJKL 260510
RWRJKL

EAST KENTUCKY HOURLY WEATHER ROUNDUP
NATIONAL WEATHER SERVICE JACKSON KY
100 AM EDT MON JUN 26 2017

NOTE: "FAIR" INDICATES FEW OR NO CLOUDS BELOW 12,000 FEET WITH
NO SIGNIFICANT WEATHER AND/OR OBSTRUCTIONS TO VISIBILITY.

* THESE REPORTS ARE NOT UNDER NWS QUALITY CONTROL AND MAY NOT
  REPORT WEATHER SUCH AS PRECIPITATION AND FOG.

KYZ079-080-083-085-087-088-110-112-115-119-120-260600
...EASTERN KENTUCKY...

CITY           SKY/WX    TMP DP  RH WIND       PRES   REMARKS
JACKSON        CLEAR     64  50  60 CALM      30.17S
LONDON         CLEAR     59  54  83 CALM      30.19S
SOMERSET*      CLEAR     55  54  94 CALM      30.20S
MONTICELLO*    CLEAR     56  55  97 W10       30.20F
WILLIAMSBURG*  PTCLDY    57  55  94 CALM      30.19S
MIDDLESBORO*   CLEAR     56  54  95 CALM      30.21F
HARLAN APT*    PTCLDY    55  52  88 CALM      30.21F
PIKE CO APT*   MOCLDY    65  49  57 CALM      30.17F
BIG SANDY APT* CLEAR     64  51  63 W3        30.17S
MOREHEAD APT*  PTCLDY    63  50  63 CALM      30.17S HAZE
$$

KYZ035-036-041-042-044-050-067-078-099-260600
...CENTRAL KENTUCKY...

CITY           SKY/WX    TMP DP  RH WIND       PRES   REMARKS
MT STERLING*   CLEAR     55  54  94 CALM      30.17F
FLEMING/MASON* PTCLDY    60  50  70 SW6       30.17R
DANVILLE*      CLEAR     59  52  77 SW3       30.18F
LEXINGTON      CLEAR     60  48  64 CALM      30.16F
FRANKFORT      PTCLDY    59  50  72 CALM      30.15R
LOUISVILLE     CLEAR     67  50  54 W5        30.16R
LEBANON*         N/A    N/A N/A N/A MISG        N/A
GLASGOW*       CLEAR     60  60 100 CALM      30.17S
BOWLING GREEN  CLEAR     65  58  78 CALM      30.17S
$$

KYZ091>093-OHZ055-061-077-WVZ005-015-034-035-042-260600
...SOUTHERN OHIO/WEST VIRGINIA...

CITY           SKY/WX    TMP DP  RH WIND       PRES   REMARKS
COVINGTON      MOCLDY    57  52  83 SW5       30.13S
COLUMBUS       PTCLDY    63  49  60 SW5       30.10F
DAYTON         PTCLDY    58  50  75 W6        30.13S
WILMINGTON     CLEAR     56  54  93 S3        30.13S
HUNTINGTON     PTCLDY    65  53  65 CALM      30.14R
CHARLESTON     PTCLDY    63  53  70 CALM      30.14R
PINEVILLE*     MOCLDY    54  53  95 MISG      30.23S
BECKLEY        CLEAR     57  46  66 S5        30.19F
BLUEFIELD      CLEAR     55  45  68 W5        30.22F
LOGAN CO APT*  MOCLDY    63  50  63 CALM      30.16S
$$

VAZ002-007-008-TNZ017-027-036-066-071-260600
...SOUTHWEST VIRGINIA/EAST TENNESSEE...

CITY           SKY/WX    TMP DP  RH WIND       PRES   REMARKS
WISE*          CLOUDY    57  46  67 CALM      30.24F
JONESVILLE*      N/A     55  54  94 CALM      30.22
ABINGDON*      CLEAR     57  52  83 CALM      30.22S
BRISTOL        CLEAR     56  53  90 CALM      30.20S
MORRISTOWN*    PTCLDY    61  52  72 CALM      30.19F
SEVIERVILLE*   CLEAR     55  54  94 CALM      30.19F
LAFOLLETTE*      N/A     55  55 100 CALM      30.23F
OAK RIDGE      CLEAR     60  53  77 CALM      30.21S
CROSSVILLE     CLEAR     55  51  86 CALM      30.23F
NASHVILLE      CLEAR     64  56  75 S5        30.18S
$$

...KEY TO REMARKS...
VSB - VISIBILITY IN MILES
WCI - WIND CHILL INDEX
HX  - HEAT INDEX

$$




USA.gov is the U.S. government's official web portal to all federal, state and local government web resources and services.